Tracking 31027 objects as of 18-Jul-2025
HD Live streaming from Space Station
objects crossing your sky now

YAOGAN-43 O1G

Track YAOGAN-43 O1G now!
10-day predictions
YAOGAN-43 O1G is classified as:


NORAD ID: 60464
Int'l Code: 2024-148G
Perigee: 492.8 km
Apogee: 505.0 km
Inclination: 35.0 °
Period: 94.4 minutes
Semi major axis: 6869 km
RCS: Unknown
Launch date: August 16, 2024
Source: People's Republic of China (PRC)
Launch site: Xichang Space Center, China (XSC)
Your satellite tracking list
Your tracking list is empty




NASA's NSSDC Master Catalog

Two Line Element Set (TLE):
1 60464U 24148G   25199.43125385  .00005535  00000-0  21966-3 0  9991
2 60464  35.0007 100.4949 0008918 346.8623  13.1859 15.24674541 51239
Source of the keplerian elements: AFSPC